Flight Track Log - Related Links

Times and Time Zones

All times are in EDT time to prevent confusion due to time zone crossing. See the SKW5576 flight status page for this flight to view local times or setup timezone preferences in your user account.

Time Position Orientation Groundspeed Altitude Reporting Facility
EDT Latitude Longitude Course Direction KTS MPH feet Rate Location/Type
05:22PM 33.4333 -112.0333 20° North 171 197 2,100  Level Phoenix TRACON
05:23PM 33.4333 -112.1167 270° West 220 253 4,300 1,705 Climbing Phoenix TRACON
05:24PM 33.4339 -112.1361 272° West 214 246 4,800 1,551 Climbing Albuquerque Center
05:25PM 33.8832 -111.8064 20° North  Level FlightAware Approximate
05:25PM 33.4678 -112.2056 300° West 275 316 6,600  Level Albuquerque Center
05:26PM 33.9958 -111.7571 20° North  Level FlightAware Approximate
05:26PM 33.5492 -112.1897 North 296 341 9,000  Level Albuquerque Center
05:27PM 34.1085 -111.7080 20° North  Level FlightAware Approximate
05:27PM 33.6319 -112.1689 12° North 302 348 11,300  Level Albuquerque Center
05:28PM 33.7122 -112.0883 40° Northeast 315 362 13,400 1,597 Climbing Albuquerque Center
05:29PM 33.7844 -112.0122 41° Northeast 344 396 14,600 1,317 Climbing Albuquerque Center
05:30PM 33.8608 -111.9314 41° Northeast 363 418 16,100 1,561 Climbing Albuquerque Center
05:31PM 33.9369 -111.8511 41° Northeast 365 420 17,800 1,512 Climbing Albuquerque Center
05:32PM 34.0208 -111.7611 42° Northeast 370 426 19,200 1,024 Climbing Albuquerque Center
05:33PM 34.1200 -111.7019 26° Northeast 372 428 19,900 581 Climbing Albuquerque Center
05:34PM 34.2153 -111.6653 18° North 388 447 20,400 488 Climbing Albuquerque Center
05:35PM 34.3208 -111.6236 18° North 397 457 20,900 732 Climbing Albuquerque Center
05:36PM 34.4278 -111.5806 18° North 402 463 21,900 976 Climbing Albuquerque Center
05:37PM 34.5339 -111.5381 18° North 403 464 22,900 878 Climbing Albuquerque Center
05:38PM 34.6150 -111.4319 47° Northeast 427 491 23,700 976 Climbing Albuquerque Center
05:39PM 34.7072 -111.3014 49° Northeast 427 491 24,900 1,073 Climbing Albuquerque Center
05:40PM 34.7839 -111.1942 49° Northeast 423 487 25,900 927 Climbing Albuquerque Center
05:41PM 34.8586 -111.0858 50° Northeast 419 482 26,800 732 Climbing Albuquerque Center
05:42PM 34.9333 -110.9756 50° Northeast 421 484 27,400 634 Climbing Albuquerque Center
05:43PM 35.0097 -110.8678 49° Northeast 420 483 28,100 585 Climbing Albuquerque Center
05:44PM 35.0922 -110.7461 50° Northeast 429 494 28,600 537 Climbing Albuquerque Center
05:45PM 35.1761 -110.6161 52° Northeast 435 501 29,200 537 Climbing Albuquerque Center
05:46PM 35.2483 -110.5050 51° Northeast 436 502 29,700 488 Climbing Albuquerque Center
05:47PM 35.3192 -110.3919 52° Northeast 436 502 30,200 488 Climbing Albuquerque Center
05:48PM 35.4047 -110.2625 51° Northeast 437 503 30,700 488 Climbing Albuquerque Center
05:49PM 35.4758 -110.1492 52° Northeast 437 503 31,200 537 Climbing Albuquerque Center
05:50PM 35.5594 -110.0194 52° Northeast 435 501 31,800 488 Climbing Albuquerque Center
05:51PM 35.6306 -109.9067 52° Northeast 435 501 32,200 341 Climbing Albuquerque Center
05:52PM 35.7019 -109.7958 52° Northeast 433 498 32,500 341 Climbing Albuquerque Center
05:53PM 35.7847 -109.6653 52° Northeast 432 497 32,900 244 Climbing Albuquerque Center
05:54PM 35.8553 -109.5517 53° Northeast 435 501 33,000 71 Climbing Albuquerque Center
05:55PM 35.8797 -109.5142 51° Northeast 438 504 33,000  Level Denver Center
05:56PM 35.9628 -109.3814 52° Northeast 437 503 33,000  Level Denver Center
05:56PM 36.0108 -109.3047 52° Northeast 437 503 33,000  Level Albuquerque Center
05:57PM 36.0828 -109.1897 52° Northeast 438 504 33,000  Level Albuquerque Center
05:58PM 36.1567 -109.0722 52° Northeast 440 506 33,000  Level Albuquerque Center
05:59PM 36.1917 -109.0164 52° Northeast 440 506 33,000  Level Denver Center
06:00PM 36.2744 -108.9133 45° Northeast 438 504 33,000  Level Denver Center
06:01PM 36.3789 -108.8083 39° Northeast 430 495 33,000  Level Denver Center
06:02PM 36.4672 -108.7181 39° Northeast 428 493 33,000  Level Denver Center
06:03PM 36.5711 -108.6122 39° Northeast 431 496 33,000  Level Denver Center
06:04PM 36.6600 -108.5214 39° Northeast 431 496 33,000 195 Level Denver Center
06:05PM 36.7503 -108.4269 40° Northeast 440 506 33,400 339 Climbing Denver Center
06:06PM 36.8556 -108.3194 39° Northeast 439 505 33,700 293 Climbing Denver Center
06:07PM 36.9456 -108.2269 39° Northeast 438 504 34,000 293 Climbing Denver Center
06:08PM 37.0494 -108.1186 40° Northeast 437 503 34,300 293 Climbing Denver Center
06:09PM 37.1392 -108.0275 39° Northeast 435 501 34,600 293 Climbing Denver Center
06:10PM 37.2275 -107.9339 40° Northeast 433 498 34,900 244 Climbing Denver Center
06:11PM 37.3306 -107.8242 40° Northeast 432 497 35,100 49 Climbing Denver Center
06:12PM 37.4208 -107.7311 39° Northeast 439 505 35,000 -49 Descending Denver Center
06:13PM 37.5264 -107.6200 40° Northeast 442 509 35,000  Level Denver Center
06:14PM 37.6172 -107.5242 40° Northeast 444 511 35,000  Level Denver Center
06:15PM 37.7069 -107.4281 40° Northeast 443 510 35,000  Level Denver Center
06:16PM 37.8144 -107.3156 40° Northeast 447 514 35,000  Level Denver Center
06:17PM 37.9047 -107.2167 41° Northeast 446 513 35,000  Level Denver Center
06:18PM 38.0108 -107.1028 40° Northeast 445 512 35,000  Level Denver Center
06:19PM 38.0983 -107.0092 40° Northeast 452 520 35,000  Level Denver Center
06:20PM 38.1936 -106.9064 40° Northeast 450 518 35,000  Level Denver Center
06:21PM 38.3006 -106.7894 41° Northeast 451 519 35,000  Level Denver Center
06:22PM 38.3850 -106.6986 40° Northeast 453 521 35,000  Level Denver Center
06:23PM 38.4864 -106.5544 48° Northeast 461 531 35,000  Level Denver Center
06:25PM 38.5653 -106.4300 51° Northeast 458 527 35,000  Level Denver Center
06:26PM 38.6447 -106.3031 51° Northeast 457 526 35,000  Level Denver Center
06:27PM 38.7328 -106.1628 51° Northeast 460 529 35,000  Level Denver Center
06:28PM 38.8083 -106.0400 52° Northeast 459 528 35,000 -1,171 Level Denver Center
06:29PM 38.8828 -105.9197 51° Northeast 460 529 32,600 -2,927 Descending Denver Center
06:30PM 38.9758 -105.7669 52° Northeast 470 541 29,000 -3,220 Descending Denver Center
06:31PM 39.0514 -105.6433 52° Northeast 463 533 26,000 -3,024 Descending Denver Center
06:32PM 39.1364 -105.5036 52° Northeast 445 512 22,800 -3,073 Descending Denver Center
06:33PM 39.2058 -105.3894 52° Northeast 419 482 19,700 -1,869 Descending Denver Center
06:34PM 39.2628 -105.2828 55° Northeast 340 391 19,000 -927 Descending Denver Center
06:35PM 39.3500 -105.2214 29° Northeast 334 384 17,800 -1,171 Descending Denver Center
06:36PM 39.4356 -105.1756 22° Northeast 331 381 16,600 -1,073 Descending Denver Center
06:37PM 39.5189 -105.1342 21° North 323 372 15,600 -1,073 Descending Denver Center
06:38PM 39.6103 -105.0964 18° North 320 368 14,400 -1,512 Descending Denver Center
06:39PM 39.6967 -105.0986 359° North 314 361 12,500 -1,805 Descending Denver Center
06:40PM 39.7781 -105.0867 North 302 348 10,700 -1,854 Descending Denver Center
06:41PM 39.8281 -105.0097 50° Northeast 282 325 8,700 -1,268 Descending Denver Center
06:42PM 39.8425 -104.9150 79° East 251 289 8,100 -590 Descending Denver Center

Login

Don't have an account? Register now (free) for customized features, flight alerts, and more!